HKJKHTMW

Guest
Details From HKJK - Nairobi Jomo Kanyatta Intl
To HTMW - MWANZA
Flight Number -
Tags generated
Created
Modified
Stats Distance 249 nm / 462 km
Max Altitude 32,400 ft / 9,876 m
Waypoints 5
Social Downloads 5
Likes 0
Share

Download

Looking for another format? Having issues loading an existing format? Contact us
Advertisement - Login to hide

Notes

Basic altitude profile: - Ascent Rate: 2500ft/min - Ascent Speed: 250kts - Cruise Altitude: 35000ft - Cruise Speed: 420kts - Descent Rate: 1500ft/min - Descent Speed: 250kts Options: - Use NATs: yes - Use PACOTS: yes - Use low airways: yes - Use high airways: yes

Route

HKJK PARIN UG450 NIBOT HTMW

ID Type Via Altitude (ft/m) Position (lat/lon) Dist (leg/tot) Name
O HKJK APT - 0 / 0 -1.31707 / 36.93076 - / 0 nm Nairobi Jomo Kanyatta Intl
PARIN FIX - 32,400 / 9,876 -1.75453 / 35.35657 98 / 98 nm
EGLOX FIX UG450 (AWY-HI) 26,500 / 8,077 -1.85647 / 34.99546 22 / 120 nm
NIBOT FIX UG450 (AWY-HI) 24,500 / 7,468 -2.01423 / 34.43739 34 / 155 nm
O HTMW APT - 0 / 0 -2.44448 / 32.93266 93 / 249 nm MWANZA

Altitude Profile

Advertisement - Login to hide

Weather


0- 5 10 15 20 25 30 35+ Temperature / °C

Clouds and Precipitation
Forecast for 2020-05-26 18:00 UTC. Updated an hour ago

Ground ~20,000 ft ~40,000 ft Winds

HKJK

Details ICAO HKJK (NBO)
Name Nairobi-Jomo Kenyatta Intl
Region Kenya
Timezone Africa/Nairobi (UTC+3.0)
Stats Elevation 5,330 ft / 1,625 m (AMSL)
Location -1.316650° 36.931300°
Runways 1
Magnetic Variation 0.663° E

METAR

HKJK 261600Z 09008KT 9999 SCT026 21/15 Q1022 NOSIG

Decode

TAF

TAF HKJK 261100Z 2612/2718 09010KT 9999 BKN026 BECMG 2620/2623 VRB04KT CAVOK TEMPO 2700/2706 1000 FG BKN006 BKN016 BECMG 2707/2710 09010KT 9999 BKN024

Decode

Departure Runways

ID Width Length Bearing (true/mag) Surface Threshold Overrun Markings Lighting
06 148 ft / 45 m 13,528 ft / 4,123 m 53.83° / 53.17° ASPHALT 0 ft / 0 m 194 ft / 59 m PREC-APP CENTERLINE EDGE THRESHOLD ALSF-I REIL-OMNI
24 148 ft / 45 m 13,528 ft / 4,123 m 233.83° / 233.17° ASPHALT 0 ft / 0 m 197 ft / 60 m PREC-APP CENTERLINE EDGE THRESHOLD MALS REIL-OMNI

HTMW

Details ICAO HTMW (MWZ)
Name MWANZA
Region Tanzania
Timezone Africa/Dar_es_Salaam (UTC+3.0)
Stats Elevation 3,763 ft / 1,147 m (AMSL)
Location -2.444510° 32.932600°
Runways 1
Magnetic Variation 1.006° E

METAR

HTMW 261600Z 00000KT 9999 FEW023 FEW024CB 26/17 Q1016 NOSIG

Decode

TAF

HTMW 261100Z 2612/2712 34010KT 9999 FEW028 FEW029CB BECMG 2706/2708 12010KT

Decode

Destination Runways

ID Width Length Bearing (true/mag) Surface Threshold Overrun Markings Lighting
12 148 ft / 45 m 10,837 ft / 3,303 m 116.54° / 115.54° ASPHALT 308 ft / 94 m 614 ft / 187 m APP EDGE THRESHOLD
30 148 ft / 45 m 10,837 ft / 3,303 m 296.54° / 295.54° ASPHALT 108 ft / 33 m 1,631 ft / 497 m APP EDGE THRESHOLD SALS

Popular Alternatives